[[{"header":{"parameterUnit":"m.s-1","parameterCategory":1,"la1":30.2991,"la2":30.254,"lo1":-89.0895,"lo2":-89.0444,"dy":0.0017,"dx":0.0017,"nx":28,"ny":28,"refTime":"2026-02-14T09:00:00:Z","depth":0,"parameterNumber":2,"parameterNumberName":"U-component_of_WINDS"},"data":[0,0,0,0,0,0,0,0,0,0,0,0,0,0,0,0,0,0,0,0,0,0,0,0,0,0,0,0,0,0,0,0,0,0,0,0,0,0,0,0,0,0,0,0,0,0,0,0,0,0,0,0,0,0,0,0,0,0,-1.2739,-1.274,0,-1.282,-1.2821,-1.2822,-1.2816,-1.2815,-1.2814,-1.2813,-1.2899,-1.2903,-1.2906,0,0,0,0,0,0,0,0,0,0,0,0,0,-1.2583,-1.2586,-1.2739,-1.274,-1.2741,-1.282,-1.2821,-1.2822,-1.2816,-1.2815,-1.2814,-1.2812,-1.2898,-1.2902,-1.2906,0,0,0,0,0,0,0,0,0,0,0,0,0,-1.2656,-1.2587,-1.2738,-1.2747,-1.2749,-1.2819,-1.2821,-1.2822,-1.2817,-1.2815,-1.2813,-1.2811,-1.2897,-1.2902,-1.2907,-1.2975,0,0,-1.2923,-1.2925,0,0,0,0,0,0,0,0,-1.2652,-1.2662,-1.2745,-1.2747,-1.2749,-1.2806,-1.2798,-1.2874,-1.2817,-1.2791,-1.2813,-1.2811,-1.287,-1.2877,-1.2897,-1.2979,-1.2983,-1.2923,-1.2926,-1.2928,-1.293,0,0,0,0,0,0,0,-1.2647,-1.2658,-1.2771,-1.2746,-1.2749,-1.2749,-1.2757,-1.2812,-1.284,-1.2793,-1.2793,-1.2803,-1.2871,-1.2892,-1.2899,-1.2984,-1.2923,-1.2928,-1.2931,-1.2933,-1.3128,-1.313,0,0,0,0,0,0,-1.2639,-1.2654,-1.2768,-1.2773,-1.2695,-1.2753,-1.2762,-1.279,-1.2839,-1.2845,-1.2804,-1.2802,-1.2884,-1.2893,-1.2902,-1.2985,-1.2928,-1.2933,-1.2936,-1.3126,-1.3128,-1.3131,0,0,0,0,0,0,-1.2636,-1.2649,-1.2765,-1.2714,-1.2728,-1.2757,-1.2788,-1.2792,-1.2813,-1.2847,-1.2853,-1.282,-1.2883,-1.2894,-1.2957,-1.2988,-1.2936,-1.294,-1.3123,-1.3127,-1.3129,-1.3152,0,0,0,0,0,0,-1.2631,-1.2648,-1.2673,-1.2714,-1.2731,-1.2818,-1.279,-1.2795,-1.2821,-1.2819,-1.2864,-1.2869,-1.2882,-1.2949,-1.2962,-1.2994,-1.2944,-1.3121,-1.3125,-1.3128,-1.3149,-1.3156,-1.3162,0,0,0,0,0,-1.2626,-1.2677,-1.2675,-1.2688,-1.2763,-1.2819,-1.2829,-1.2842,-1.2824,-1.285,-1.2872,-1.2868,-1.2983,-1.2956,-1.297,-1.3004,-1.3119,-1.3124,-1.3128,-1.3146,-1.3155,-1.3162,0,0,0,0,0,0,-1.264,-1.2682,-1.268,-1.2746,-1.2779,-1.2818,-1.2851,-1.285,-1.289,-1.2887,-1.2902,-1.2912,-1.2975,-1.2996,-1.2965,-1.3073,-1.3049,-1.3056,-1.3057,-1.3066,-1.3072,-1.3066,-1.2949,0,0,0,0,0,-1.265,-1.2692,-1.2727,-1.2782,-1.2798,-1.2822,-1.2847,-1.2854,-1.289,-1.2904,-1.2931,-1.2966,-1.301,-1.3039,-1.3082,-1.3152,-1.3163,-1.3183,-1.3189,-1.3195,-1.3201,-1.3242,-1.3251,-1.3146,-1.3146,-1.3146,0,0,-1.2673,-1.2701,-1.2727,-1.2785,-1.2812,-1.2855,-1.2834,-1.2881,-1.2914,-1.2911,-1.2972,-1.2993,-1.3034,-1.3101,-1.3132,-1.312,-1.3233,-1.3201,-1.3204,-1.3208,-1.3247,-1.3257,-1.3266,-1.3149,-1.3149,-1.3148,0,0,-1.2736,-1.2761,-1.281,-1.2837,-1.2877,-1.2893,-1.2904,-1.2944,-1.2958,-1.3019,-1.3018,-1.3059,-1.3134,-1.3163,-1.3188,-1.3264,-1.3262,-1.3278,-1.3312,-1.3351,-1.3359,-1.3366,-1.3394,-1.3404,-1.3284,-1.3284,-1.3284,0,-1.276,-1.2824,-1.2835,-1.2883,-1.2909,-1.2908,-1.2959,-1.2985,-1.3037,-1.3056,-1.3042,-1.3138,-1.3165,-1.3239,-1.3258,-1.3278,-1.3293,-1.3273,-1.3356,-1.3364,-1.3371,-1.3398,-1.3409,-1.3286,-1.3286,-1.3286,-1.3285,0,-1.2851,-1.2896,-1.2931,-1.298,-1.3011,-1.3059,-1.308,-1.3109,-1.3114,-1.3132,-1.3195,-1.3228,-1.3277,-1.3296,-1.3301,-1.3372,-1.3363,-1.3353,-1.3328,-1.3383,-1.3408,-1.3419,-1.3288,-1.3288,-1.3287,-1.3287,0,0,-1.2925,-1.2981,-1.2993,-1.3016,-1.3061,-1.3097,-1.3146,-1.3194,-1.322,-1.3256,-1.3299,-1.3363,-1.3354,-1.3383,-1.3391,-1.3426,-1.3485,-1.3411,-1.3413,-1.3425,-1.3566,-1.3574,-1.3586,-1.3484,-1.3486,-1.3487,-1.3563,0,-1.2993,-1.3079,-1.3091,-1.3168,-1.321,-1.3211,-1.3254,-1.3287,-1.3305,-1.3345,-1.3366,-1.3412,-1.3396,-1.3413,-1.3447,-1.347,-1.3514,-1.3465,-1.3525,-1.3527,-1.3515,-1.3599,-1.3607,-1.3677,-1.3573,-1.3575,-1.3576,0,-1.3084,-1.3122,-1.3203,-1.3243,-1.3261,-1.3299,-1.3345,-1.3382,-1.3421,-1.3432,-1.3464,-1.3469,-1.3522,-1.3495,-1.3569,-1.3535,-1.3561,-1.3577,-1.358,-1.3586,-1.3555,-1.3608,-1.3699,-1.371,-1.3592,-1.3591,-1.359,0,-1.313,-1.3202,-1.326,-1.328,-1.3327,-1.3355,-1.3376,-1.3412,-1.3441,-1.3481,-1.35,-1.3546,-1.3572,-1.3608,-1.3626,-1.3605,-1.37,-1.3674,-1.3712,-1.3711,-1.3732,-1.373,-1.3829,-1.3747,-1.3747,-1.3747,-1.3747,0,-1.3205,-1.3255,-1.3281,-1.3317,-1.3373,-1.3388,-1.3443,-1.3464,-1.3497,-1.3538,-1.3542,-1.358,-1.3601,-1.3644,-1.3658,-1.3718,-1.373,-1.3741,-1.3745,-1.3741,-1.374,-1.3758,-1.3754,-1.375,-1.3749,-1.3749,-1.3748,0,-1.3266,-1.3286,-1.3349,-1.339,-1.3401,-1.3441,-1.3476,-1.3511,-1.353,-1.3581,-1.3595,-1.3624,-1.3674,-1.3696,-1.3757,-1.3767,-1.3836,-1.3836,-1.3823,-1.3824,-1.3861,-1.3857,-1.3975,-1.3992,-1.3899,-1.39,-1.39,0,-1.3313,-1.3351,-1.3395,-1.3422,-1.3445,-1.3488,-1.3517,-1.3534,-1.3564,-1.3611,-1.3641,-1.3691,-1.3732,-1.3812,-1.384,-1.3888,-1.3889,-1.3927,-1.3897,-1.3892,-1.3891,-1.3888,-1.3893,-1.3933,-1.3934,-1.3935,-1.3935,0,-1.3394,-1.3402,-1.3443,-1.3487,-1.3522,-1.3558,-1.3593,-1.3616,-1.3638,-1.3673,-1.3723,-1.3755,-1.3818,-1.3868,-1.3918,-1.3942,-1.3943,-1.3945,-1.3956,-1.3953,-1.3944,-1.395,-1.3839,-1.3942,-1.3941,-1.3941,-1.394,-1.394,-1.345,-1.3484,-1.3521,-1.3566,-1.3595,-1.3628,-1.3664,-1.3687,-1.3729,-1.3781,-1.3789,-1.3843,-1.3882,-1.3949,-1.3975,-1.4019,-1.401,-1.4026,-1.403,-1.4034,-1.4037,-1.3937,-1.4028,-1.4028,-1.4028,-1.4028,-1.4028,0,-1.3531,-1.3555,-1.3597,-1.3646,-1.3683,-1.368,-1.3719,-1.3751,-1.3798,-1.3834,-1.3874,-1.3933,-1.3982,-1.4014,-1.4064,-1.4094,-1.4096,-1.4106,-1.4104,-1.411,-1.4042,-1.4027,-1.4104,-1.4104,-1.4104,-1.4104,-1.4104,-1.4104,-1.3578,-1.3636,-1.3649,-1.3722,-1.3746,-1.3798,-1.3821,-1.3853,-1.3882,-1.3947,-1.3987,-1.4008,-1.4043,-1.4095,-1.4141,-1.4149,-1.4168,-1.4179,-1.4187,-1.4123,-1.4115,-1.4107,-1.4094,-1.4183,-1.4183,-1.4252,-1.4252,-1.4253]},{"header":{"parameterUnit":"m.s-1","parameterCategory":1,"la1":30.2991,"la2":30.254,"lo1":-89.0895,"lo2":-89.0444,"dy":0.0017,"dx":0.0017,"nx":28,"ny":28,"refTime":"2026-02-14T09:00:00:Z","depth":0,"parameterNumber":3,"parameterNumberName":"V-component_of_WINDS"},"data":[0,0,0,0,0,0,0,0,0,0,0,0,0,0,0,0,0,0,0,0,0,0,0,0,0,0,0,0,0,0,0,0,0,0,0,0,0,0,0,0,0,0,0,0,0,0,0,0,0,0,0,0,0,0,0,0,0,0,-0.2056,-0.2057,0,-0.2093,-0.2094,-0.2094,-0.2147,-0.2148,-0.2149,-0.2149,-0.2186,-0.2186,-0.2186,0,0,0,0,0,0,0,0,0,0,0,0,0,-0.2029,-0.2029,-0.2056,-0.2057,-0.2057,-0.2093,-0.2094,-0.2094,-0.2147,-0.2148,-0.2149,-0.215,-0.2186,-0.2186,-0.2186,0,0,0,0,0,0,0,0,0,0,0,0,0,-0.2051,-0.2029,-0.2056,-0.2088,-0.2091,-0.2093,-0.2094,-0.2094,-0.2146,-0.2148,-0.2149,-0.215,-0.2186,-0.2186,-0.2186,-0.216,0,0,-0.2186,-0.2186,0,0,0,0,0,0,0,0,-0.2049,-0.2052,-0.2083,-0.2086,-0.2089,-0.2117,-0.2097,-0.2116,-0.2146,-0.2125,-0.2149,-0.2151,-0.2162,-0.2164,-0.2168,-0.2161,-0.2163,-0.2186,-0.2187,-0.2187,-0.2187,0,0,0,0,0,0,0,-0.2048,-0.205,-0.2071,-0.2083,-0.2087,-0.2099,-0.2104,-0.2101,-0.2135,-0.2127,-0.2131,-0.2135,-0.2164,-0.2167,-0.2169,-0.2164,-0.2186,-0.2187,-0.2187,-0.2187,-0.2136,-0.2135,0,0,0,0,0,0,-0.2042,-0.2049,-0.207,-0.2072,-0.2072,-0.2099,-0.2104,-0.2107,-0.2135,-0.2141,-0.2134,-0.2137,-0.2166,-0.2169,-0.217,-0.2141,-0.2187,-0.2187,-0.2187,-0.2138,-0.2136,-0.2135,0,0,0,0,0,0,-0.2041,-0.2043,-0.2068,-0.2061,-0.2066,-0.2098,-0.21,-0.2107,-0.2111,-0.214,-0.2147,-0.2131,-0.2168,-0.217,-0.2162,-0.2143,-0.2187,-0.2187,-0.214,-0.2137,-0.2135,-0.2082,0,0,0,0,0,0,-0.204,-0.2043,-0.2034,-0.2061,-0.2066,-0.206,-0.2099,-0.2106,-0.2111,-0.2116,-0.214,-0.2145,-0.2169,-0.2161,-0.2162,-0.2144,-0.2187,-0.2141,-0.2139,-0.2136,-0.2086,-0.2078,-0.2072,0,0,0,0,0,-0.2039,-0.2017,-0.2033,-0.2035,-0.2055,-0.2059,-0.2061,-0.2089,-0.2109,-0.21,-0.2119,-0.2144,-0.2145,-0.216,-0.2161,-0.2143,-0.2143,-0.2139,-0.2136,-0.2089,-0.208,-0.2072,0,0,0,0,0,0,-0.1986,-0.2021,-0.2039,-0.2026,-0.2039,-0.2067,-0.2057,-0.2079,-0.2087,-0.2091,-0.2125,-0.213,-0.2117,-0.2129,-0.2145,-0.2119,-0.2148,-0.2144,-0.2111,-0.2103,-0.2096,-0.2093,-0.2187,0,0,0,0,0,-0.1973,-0.1974,-0.2004,-0.1989,-0.1995,-0.2024,-0.2027,-0.2047,-0.2062,-0.2068,-0.2086,-0.2099,-0.2102,-0.2103,-0.2108,-0.2088,-0.2093,-0.2076,-0.2069,-0.2063,-0.206,-0.2049,-0.2041,-0.2124,-0.2124,-0.2124,0,0,-0.1946,-0.1965,-0.1963,-0.1979,-0.1991,-0.199,-0.2029,-0.2026,-0.2025,-0.2067,-0.206,-0.2074,-0.2091,-0.2076,-0.2071,-0.2086,-0.2038,-0.2059,-0.2054,-0.2054,-0.2045,-0.2037,-0.203,-0.2122,-0.2122,-0.2122,0,0,-0.1896,-0.1911,-0.19,-0.1911,-0.193,-0.195,-0.1947,-0.1972,-0.1983,-0.1977,-0.2008,-0.2007,-0.2012,-0.2022,-0.2027,-0.198,-0.2003,-0.198,-0.1945,-0.1934,-0.1927,-0.1922,-0.1904,-0.1897,-0.1977,-0.1977,-0.1977,0,-0.186,-0.186,-0.1891,-0.1886,-0.1891,-0.193,-0.1918,-0.1928,-0.1946,-0.1949,-0.1966,-0.1972,-0.1986,-0.1974,-0.1962,-0.1965,-0.1962,-0.1978,-0.1926,-0.1921,-0.1916,-0.1899,-0.1892,-0.1974,-0.1974,-0.1975,-0.1975,0,-0.1814,-0.1813,-0.1802,-0.1819,-0.1823,-0.1815,-0.1844,-0.1844,-0.1864,-0.1882,-0.1874,-0.1892,-0.19,-0.1899,-0.1918,-0.1889,-0.1898,-0.192,-0.195,-0.1904,-0.1889,-0.1883,-0.197,-0.1971,-0.1972,-0.1972,0,0,-0.1732,-0.1766,-0.1761,-0.1769,-0.1792,-0.1792,-0.1785,-0.1793,-0.1792,-0.1804,-0.1798,-0.1801,-0.1821,-0.1827,-0.1848,-0.1838,-0.1798,-0.1862,-0.1862,-0.1848,-0.1766,-0.1749,-0.1741,-0.1814,-0.1813,-0.1812,-0.1764,0,-0.1686,-0.1676,-0.1703,-0.1687,-0.1686,-0.1722,-0.1715,-0.1728,-0.1744,-0.1745,-0.1763,-0.1764,-0.1791,-0.1795,-0.1787,-0.1805,-0.1782,-0.1809,-0.1808,-0.1808,-0.1802,-0.1733,-0.1716,-0.167,-0.1759,-0.1758,-0.1757,0,-0.1631,-0.1639,-0.1622,-0.1645,-0.1646,-0.164,-0.1649,-0.165,-0.1665,-0.1677,-0.1684,-0.1708,-0.1701,-0.173,-0.1721,-0.1738,-0.174,-0.1748,-0.1747,-0.1748,-0.1779,-0.1731,-0.1656,-0.1648,-0.1748,-0.1749,-0.175,0,-0.1572,-0.1579,-0.157,-0.1575,-0.1602,-0.1597,-0.1607,-0.1624,-0.1627,-0.1635,-0.1637,-0.1643,-0.1647,-0.1651,-0.1676,-0.1695,-0.1664,-0.1695,-0.1673,-0.1672,-0.1664,-0.1664,-0.1587,-0.1666,-0.1666,-0.1666,-0.1666,0,-0.1517,-0.1505,-0.1543,-0.1537,-0.1525,-0.1556,-0.1542,-0.1556,-0.157,-0.1567,-0.1598,-0.1594,-0.1628,-0.1627,-0.1646,-0.1635,-0.1637,-0.1646,-0.1651,-0.1643,-0.1641,-0.1644,-0.1647,-0.1664,-0.1665,-0.1665,-0.1665,0,-0.1449,-0.1474,-0.1466,-0.1492,-0.1498,-0.1487,-0.1509,-0.1504,-0.1522,-0.1517,-0.1518,-0.1546,-0.1547,-0.1572,-0.1578,-0.1591,-0.1572,-0.1583,-0.1567,-0.157,-0.1546,-0.1548,-0.1467,-0.1458,-0.1543,-0.1542,-0.1542,0,-0.1412,-0.1404,-0.1428,-0.1429,-0.1438,-0.1438,-0.1441,-0.1471,-0.1473,-0.1488,-0.1481,-0.1485,-0.1489,-0.1489,-0.1509,-0.1513,-0.1524,-0.1496,-0.1525,-0.1517,-0.1523,-0.1523,-0.1522,-0.1489,-0.1488,-0.1488,-0.1487,0,-0.1343,-0.1356,-0.136,-0.1367,-0.137,-0.1378,-0.1387,-0.1385,-0.1418,-0.1418,-0.1419,-0.1423,-0.1429,-0.1431,-0.144,-0.145,-0.1473,-0.1477,-0.1472,-0.1464,-0.1454,-0.1458,-0.1549,-0.1479,-0.148,-0.148,-0.1481,-0.1481,-0.129,-0.1283,-0.1299,-0.1302,-0.1312,-0.132,-0.1316,-0.1333,-0.1335,-0.1343,-0.136,-0.1358,-0.1372,-0.1386,-0.1394,-0.1392,-0.1407,-0.14,-0.1398,-0.1395,-0.139,-0.1455,-0.1394,-0.1394,-0.1394,-0.1395,-0.1395,0,-0.1222,-0.1234,-0.1236,-0.1248,-0.125,-0.1272,-0.1283,-0.1283,-0.1281,-0.1292,-0.1296,-0.1297,-0.1299,-0.1319,-0.1324,-0.1319,-0.1329,-0.1319,-0.1319,-0.1321,-0.1378,-0.1381,-0.131,-0.131,-0.131,-0.131,-0.131,-0.131,-0.1187,-0.1177,-0.1192,-0.1187,-0.1199,-0.1198,-0.1202,-0.1209,-0.1218,-0.1218,-0.122,-0.1233,-0.1248,-0.1253,-0.1256,-0.1262,-0.1262,-0.1247,-0.1256,-0.1309,-0.1317,-0.1325,-0.1328,-0.1247,-0.1247,-0.12,-0.1199,-0.1199]}]]